Home   Weather   Dayton   Past weeks

Flag for USA Past Weather in Dayton, Ohio, USA — Yesterday and Last 2 Weeks

50 °F

Partly sunny.

Feels Like: 45 °F
Forecast: 45 / 54 °F
Wind: 14 mph from Northwest

Location: Dayton / Wright-Patterson Air Force Base

Current Time: Oct 21, 2016 at 12:44:07 PM

Latest Report: Oct 21, 2016 at 12:09 PM

Visibility: 10 mi

Pressure: 30.01 "Hg

Humidity: 82%

Dew Point: 45 °F

Location of DaytonLocation

Past Weather in Dayton — Graph


Dayton Temperature Yesterday

Maximum temperature yesterday: 63 °F (at 1:58 PM)
Minimum temperature yesterday: 54 °F (at 9:58 PM)
Average temperature yesterday: 59 °F

High & Low Weather Summary for the Past Weeks

High83 °F (Oct 6, 2:58 PM)100% (Oct 13, 2:58 AM)30.45 "Hg (Oct 13, 2:58 AM)
Low40 °F (Oct 9, 7:58 AM)33% (Oct 8, 2:58 PM)29.77 "Hg (Oct 17, 11:58 PM)
Average62 °F73%30.12 "Hg
* Reported Oct 6 10:58 AM — Oct 21 10:58 AM, Dayton, Weather by CustomWeather, © 2016

Note: Actual official high and low records may vary slightly from our data, if they occured in-between our weather recording intervals... More about our weather records


Dayton Weather History for the Previous 24 Hours

Scroll right to see more
Time TempWeatherWind HumidityBarometerVisibility
10:58 AM
Fri, Oct 21
48 °FBroken clouds.10 mph92%30.01 "Hg10 mi
9:58 AM48 °FLight rain. Mostly cloudy.10 mph98%30.00 "Hg10 mi
8:58 AM49 °FMostly cloudy.12 mph99%29.98 "Hg10 mi
8:04 AM48 °FLight rain. Fog.16 mph100%29.95 "Hg5 mi
7:58 AM48 °FLight rain. Overcast.12 mph99%29.95 "Hg10 mi
6:58 AM49 °FLight rain. Mostly cloudy.10 mph97%29.95 "Hg10 mi
5:58 AM50 °FLight rain. Mostly cloudy.15 mph100%29.92 "Hg10 mi
5:46 AM50 °FLight rain. Overcast.20 mph100%29.91 "Hg10 mi
4:58 AM51 °FLight rain. Mostly cloudy.16 mph100%29.91 "Hg10 mi
3:58 AM53 °FRain. Mostly cloudy.15 mph100%29.89 "Hg6 mi
2:58 AM54 °FLow clouds.14 mph100%29.88 "Hg10 mi
1:58 AM54 °FLight rain. Mostly cloudy.12 mph100%29.88 "Hg10 mi
12:58 AM54 °FLight rain. Overcast.16 mph100%29.90 "Hg10 mi
11:58 PM
Thu, Oct 20
54 °FLight rain. Overcast.12 mph99%29.90 "Hg10 mi
10:58 PM54 °FLight rain. Overcast.17 mph100%29.93 "Hg10 mi
9:58 PM54 °FLight rain. Mostly cloudy.15 mph100%29.93 "Hg10 mi
8:58 PM54 °FLight rain. Low clouds.13 mph100%29.93 "Hg7 mi
7:58 PM56 °FLight rain. Low clouds.13 mph100%29.93 "Hg10 mi
6:58 PM56 °FMostly cloudy.10 mph100%29.91 "Hg10 mi
5:58 PM56 °FLight rain. Fog.12 mph100%29.91 "Hg2 mi
4:59 PM59 °FFog.12 mph100%29.92 "Hg1 mi
3:58 PM61 °FLow clouds.7 mph100%29.91 "Hg10 mi
2:58 PM62 °FFog.5 mph100%29.92 "Hg6 mi
1:58 PM63 °FLight rain. Fog.2 mph100%29.96 "Hg2 mi
12:58 PM62 °FLight rain. Fog.1 mph100%29.95 "Hg2 mi
Weather by CustomWeather, © 2016

See weather overviewHow to use our weather pages